George, South Africa

8:06 AM SAST on February 11, 2016 (GMT +0200)
George

Weather History for FAGG - September, 2013

Change the Weather History Date:

Monday, September 9, 2013

  Actual Average Record
Temperature  
Mean Temperature 52 °F -  
Max Temperature 56 °F 65 °F 73 °F (2003)
Min Temperature 48 °F 48 °F 42 °F (1997)
Degree Days  
Heating Degree Days 13    
Growing Degree Days 2 (Base 50)    
Moisture  
Dew Point 44 °F    
Average Humidity 74    
Maximum Humidity 94    
Minimum Humidity 46    
Precipitation  
Precipitation 0.02 in - - ()
Sea Level Pressure  
Sea Level Pressure 30.17 in    
Wind  
Wind Speed 8 mph ()    
Max Wind Speed 15 mph    
Max Gust Speed -    
Visibility 7.4 miles    
Events Rain    
Averages and records for this station are not official NWS values.
T = Trace of Precipitation, MM = Missing Value Source: Averaged Metar Reports

Daily Weather History Graph

Daily Weather History Graph

Search for Another Location

Airport or City:

Trip Planner

Search our weather history database for the weather conditions in past years. The results will help you decide how hot, cold, wet, or windy it might be!

Date:

Astronomy

Sep. 09, 2013 Rise Set
Actual Time 6:38 AM SAST 6:18 PM SAST
Civil Twilight 6:13 AM SAST 6:43 PM SAST
Nautical Twilight 5:44 AM SAST 7:11 PM SAST
Astronomical Twilight 5:15 AM SAST 7:41 PM SAST
Moon 8:43 AM SAST (9/9) 10:27 PM SAST (9/9)
Length of Visible Light 12h 29m
Length of Day
11h 39m
Waxing Crescent, 16% of the Moon is Illuminated
Sep 9
Waxing Crescent
Sep 12
First Quarter
Sep 19
Full
Sep 27
Last Quarter
Oct 5
New

Hourly Weather History & Observations

Time (SAST) Temp. Dew Point Humidity Pressure Visibility Wind Dir Wind Speed Gust Speed Precip Events Conditions
12:00 AM 53.6 °F 46.4 °F 77% 30.06 in 6.2 mi West 9.2 mph - N/A   Overcast
1:00 AM 50.0 °F 46.4 °F 87% 30.09 in - WSW 12.7 mph - N/A Rain Light Rain
2:00 AM 51 °F 48 °F 87% 30.12 in 6 mi West 9.2 mph - -  
2:00 AM 50.0 °F 48.2 °F 94% 30.09 in 6.2 mi West 9.2 mph - N/A   Mostly Cloudy
3:00 AM 50.0 °F 48.2 °F 94% 30.09 in 5.6 mi West 11.5 mph - N/A Rain Light Rain
4:00 AM 50.0 °F 46.4 °F 87% 30.12 in 6.2 mi WNW 11.5 mph - N/A   Mostly Cloudy
5:00 AM 49 °F 46 °F 85% 30.16 in 12 mi NW 11.5 mph - -   Partly Cloudy
5:00 AM 50.0 °F 46.4 °F 87% 30.12 in 6.2 mi NW 11.5 mph - N/A   Mostly Cloudy
6:00 AM 48.2 °F 44.6 °F 87% 30.15 in 6.2 mi NW 11.5 mph - N/A   Mostly Cloudy
7:00 AM 48.2 °F 42.8 °F 82% 30.15 in 6.2 mi WNW 11.5 mph - N/A   Mostly Cloudy
8:00 AM 49 °F 44 °F 76% 30.21 in 12 mi WNW 11.5 mph - -   Mostly Cloudy
8:00 AM 50.0 °F 44.6 °F 82% 30.18 in 6.2 mi NW 11.5 mph - N/A   Mostly Cloudy
9:00 AM 51.8 °F 44.6 °F 76% 30.21 in 6.2 mi WNW 15.0 mph - N/A   Mostly Cloudy
10:00 AM 53.6 °F 44.6 °F 72% 30.21 in 6.2 mi WNW 11.5 mph - N/A   Mostly Cloudy
11:00 AM 56 °F 41 °F 46% 30.25 in 12 mi West 9.2 mph - -   Mostly Cloudy
11:00 AM 55.4 °F 41.0 °F 58% 30.24 in 6.2 mi West 9.2 mph - N/A   Mostly Cloudy
12:00 PM 55.4 °F 41.0 °F 58% 30.21 in 6.2 mi West 6.9 mph - N/A   Mostly Cloudy
1:00 PM 53.6 °F 42.8 °F 67% 30.21 in 6.2 mi North 3.5 mph - N/A   Mostly Cloudy
2:00 PM 53 °F 44 °F 61% 30.22 in 12 mi WSW 3.5 mph - -   Partly Cloudy
2:00 PM 53.6 °F 42.8 °F 67% 30.21 in 6.2 mi WSW 3.5 mph - N/A   Mostly Cloudy
3:00 PM 55.4 °F 41.0 °F 58% 30.18 in 6.2 mi SW 3.5 mph - N/A   Mostly Cloudy
4:00 PM 55.4 °F 41.0 °F 58% 30.18 in 6.2 mi SSW 10.4 mph - N/A   Mostly Cloudy
5:00 PM 54 °F 42 °F 55% 30.19 in 12 mi SSW 8.1 mph - -   Mostly Cloudy
5:00 PM 53.6 °F 42.8 °F 67% 30.18 in 6.2 mi SSW 8.1 mph - N/A   Mostly Cloudy
6:00 PM 53.6 °F 42.8 °F 67% 30.18 in 6.2 mi SW 4.6 mph - N/A   Mostly Cloudy
7:00 PM 51.8 °F 42.8 °F 71% 30.18 in 6.2 mi SSW 1.2 mph - N/A   Mostly Cloudy
8:00 PM 51 °F 44 °F 68% 30.21 in 12 mi West 4.6 mph - -   Mostly Cloudy
8:00 PM 50.0 °F 44.6 °F 82% 30.18 in 6.2 mi West 4.6 mph - N/A   Mostly Cloudy
9:00 PM 50.0 °F 42.8 °F 76% 30.21 in 6.2 mi NW 3.5 mph - N/A   Partly Cloudy
10:00 PM 50.0 °F 44.6 °F 82% 30.18 in - NW 4.6 mph - N/A   Clear
11:00 PM 48.2 °F 42.8 °F 82% 30.18 in - WNW 4.6 mph - N/A   Clear